SL-14 DEB, 45357

Orbit data source: Space-Track

SL-14 DEB, 45357 is space debris in LEO originally from a launch on Thu, 15 Aug 1991 UTC launched from the Plesetsk Missile And Space Complex (PKMTR). Debris objects in space refer to the collection of defunct objects orbiting the Earth. Examples of debris include non-operational satellites, rocket bodies, and fragments generated from explosions, collisions, or faulty payload assembly.

Loading next visibility...
Identifier
45357, 1991-056CR
Orbit
LEO
Country
Flag of CISCIS
Related business
Manufacturer
Unknown
Mission
Spacecraft
Bus & Motor
Unknown
Mass
Unknown
Launch date (UTC)
1991-08-15 (34 years ago)
Launch vehicle
Unknown
Launch site
Plesetsk Missile And Space Complex (PKMTR)
Object type
Payload
Rocket body
Debris
Shape & HBR
Unknown shape, 0.1 m
Radar Cross Section
Small (<0.1 m²)

Expand to show TLE details & history
Last TLE update: 23 hours ago

TLE from 23 hours ago
0 SL-14 DEB
1 45357U 91056CR  25349.65449658  .00001362  00000-0  25580-2 0  9999
2 45357  82.5672 226.8095 0078984  13.5982 346.7254 13.36852865281731
Epoch: 2025-12-15T15:42Z
TLE epoch observation values (Epoch: 2025-12-15T15:42:28.504Z)
Latitude
-0.00002°
Longitude
-93.35923°
Altitude
1,066.227 km
Speed
7.347 km/s
True Right ascension
15h 07m 14s
True Declination
0° 00' 00"
Sunlit
Object was in daylight at epoch
Visualization orbit readout
Latitude
Unknown
Longitude
Unknown
Altitude
Unknown
Speed
Unknown
Apparent Right ascension
Unknown
Apparent Declination
Unknown
Sunlit
N/A
Visualization observer readout
Local Sidereal Time
13:48:01
Azimuth
Unknown
Elevation
Unknown
Doppler factor
Unknown
Orbital elements
Apogee altitude
1,177.451 km
Perigee altitude
1,059.032 km
Semi-major axis
7,496.379 km
Eccentricity
0.0079
Inclination
82.5672°
RAAN
226.8095°
Arg. of periapsis
13.5982°
True anomaly
346.51556°
Mean anomaly
346.7254°
Eccentric anomaly
346.62068°
Mean motion
3.344 °/min
Orbital period
107.66 mins
BSTAR
0.002558
Loading maneuver chart data...
Computing Atmospheric mass density...
Loading historical data...
Loading historical data...
Loading historical data...
Loading historical data...
Loading historical data...
Loading historical data...
Loading historical data...

Documentation

Showing up to 5 results
|